Location: Mannheim
(49.4880°N, 8.4650°E)
Time: 06:18:19
(UTC+02:00)

ACS3 Solar Sail - Pass Details

Date: 20 September 2024
Orbit: 963 x 1036 km, 97.4° (Epoch: 04 October)

Event Time Altitude Azimuth Distance (km) Brightness Sun altitude
Exits shadow 22:40:24 14° 214° (SW) 2,549 3.9 -29.4°
Maximum altitude 22:45:03 31° 269° (W) 1,737 3.4 -30.0°
Drops below altitude 10° 22:50:40 10° 330° (NNW) 2,844 5.1 -30.6°
Sets 22:53:32 0° 341° (NNW) 3,795 5.8 -30.9°
